Weather History for Fort Yukon, AK

Change the Weather History Date:

Wednesday, March 6, 2013

  Actual Average Record
Temperature  
Mean Temperature -5 °F -  
Max Temperature 6 °F 6 °F 21 °F (2008)
Min Temperature -16 °F -12 °F -34 °F (1999)
Degree Days  
Heating Degree Days 70    
Moisture  
Dew Point -14 °F    
Average Humidity 67    
Maximum Humidity 100    
Minimum Humidity 40    
Precipitation  
Precipitation 0.00 in - - ()
Sea Level Pressure  
Sea Level Pressure 30.01 in    
Wind  
Wind Speed 3 mph (NE)    
Max Wind Speed 7 mph    
Max Gust Speed -    
Visibility 9 miles    
Events      
Averages and records for this station are not official NWS values.
T = Trace of Precipitation, MM = Missing Value Source: NWS Daily Summary

Daily Weather History Graph

Daily Weather History Graph

Search for Another Location

Airport:

Trip Planner

Search our weather history database for the weather conditions in past years. The results will help you decide how hot, cold, wet, or windy it might be!

Date:

Astronomy

Mar. 06, 2013 Rise Set
Actual Time 7:34 AM AKST 6:11 PM AKST
Civil Twilight 6:41 AM AKST 7:04 PM AKST
Nautical Twilight 5:41 AM AKST 8:05 PM AKST
Astronomical Twilight 4:36 AM AKST 9:11 PM AKST
Moon 5:56 AM AKST (3/6) 11:01 AM AKST (3/6)
Length of Visible Light 12h 22m
Length of Day
10h 37m
Waning Crescent, 28% of the Moon is Illuminated
Mar 6
Waning Crescent
Mar 11
New
Mar 19
First Quarter
Mar 27
Full
Apr 2
Last Quarter

Hourly Weather History & Observations

Time (AKST) Temp. Windchill Dew Point Humidity Pressure Visibility Wind Dir Wind Speed Gust Speed Precip Events Conditions
12:16 AM -7.6 °F -18.8 °F -14.8 °F 71% 30.10 in 10.0 mi NE 4.6 mph - N/A   Clear
12:36 AM -7.6 °F -16.5 °F -16.6 °F 65% 30.10 in 10.0 mi NNE 3.5 mph - N/A   Clear
12:56 AM -9.4 °F - -14.8 °F 77% 30.10 in 10.0 mi Calm Calm - N/A   Clear
1:16 AM -9.4 °F -20.9 °F -14.8 °F 77% 30.09 in 10.0 mi NNE 4.6 mph - N/A   Clear
1:36 AM -9.4 °F -22.7 °F -16.6 °F 71% 30.08 in 10.0 mi NE 5.8 mph - N/A   Clear
1:56 AM -9.4 °F -20.9 °F -16.6 °F 71% 30.08 in 10.0 mi NE 4.6 mph - N/A   Clear
2:16 AM -9.4 °F -20.9 °F -18.4 °F 65% 30.08 in 10.0 mi NE 4.6 mph - N/A   Clear
2:36 AM -9.4 °F -18.6 °F -18.4 °F 65% 30.08 in 10.0 mi NE 3.5 mph - N/A   Clear
2:56 AM -9.4 °F -18.6 °F -18.4 °F 65% 30.08 in 10.0 mi NE 3.5 mph - N/A   Clear
3:16 AM -11.2 °F -20.6 °F -16.6 °F 77% 30.07 in 10.0 mi NE 3.5 mph - N/A   Clear
3:36 AM -11.2 °F -20.6 °F -20.2 °F 64% 30.06 in 10.0 mi NE 3.5 mph - N/A   Clear
3:56 AM -11.2 °F -23.0 °F -16.6 °F 77% 30.06 in 10.0 mi NE 4.6 mph - N/A   Clear
4:16 AM -9.4 °F -20.9 °F -16.6 °F 71% 30.05 in 10.0 mi NE 4.6 mph - N/A   Clear
4:36 AM -11.2 °F -23.0 °F -20.2 °F 64% 30.05 in 10.0 mi NE 4.6 mph - N/A   Clear
4:56 AM -9.4 °F -18.6 °F -16.6 °F 71% 30.05 in 10.0 mi NE 3.5 mph - N/A   Clear
5:16 AM -11.2 °F -20.6 °F -18.4 °F 70% 30.05 in 10.0 mi NE 3.5 mph - N/A   Clear
5:36 AM -11.2 °F -23.0 °F -16.6 °F 77% 30.04 in 10.0 mi NE 4.6 mph - N/A   Clear
5:56 AM -11.2 °F - -22.0 °F 59% 30.04 in 10.0 mi Calm Calm - N/A   Clear
6:36 AM -14.8 °F - -25.6 °F 58% 30.04 in 10.0 mi Calm Calm - N/A   Clear
6:56 AM -16.6 °F - -27.4 °F 58% 30.03 in 10.0 mi Calm Calm - N/A   Clear
7:16 AM -16.6 °F - -20.2 °F 84% 30.03 in 10.0 mi Calm Calm - N/A   Clear
7:36 AM -14.8 °F -24.8 °F -23.8 °F 64% 30.03 in 10.0 mi NNE 3.5 mph - N/A   Partly Cloudy
7:56 AM -13.0 °F -22.7 °F -13.0 °F 100% 30.02 in 10.0 mi NNE 3.5 mph - N/A   Partly Cloudy
8:16 AM -11.2 °F -20.6 °F -23.8 °F 54% 30.02 in 10.0 mi NE 3.5 mph - N/A   Partly Cloudy
8:36 AM -11.2 °F -23.0 °F -11.2 °F 100% 30.02 in 10.0 mi NE 4.6 mph - N/A   Partly Cloudy
8:56 AM -9.4 °F -18.6 °F -20.2 °F 59% 30.02 in 10.0 mi NE 3.5 mph - N/A   Partly Cloudy
9:16 AM -9.4 °F -18.6 °F -9.4 °F 100% 30.02 in 10.0 mi NE 3.5 mph - N/A   Partly Cloudy
9:36 AM -7.6 °F -16.5 °F -18.4 °F 59% 30.02 in 10.0 mi ENE 3.5 mph - N/A   Partly Cloudy
9:56 AM -5.8 °F -16.7 °F -5.8 °F 100% 30.02 in 10.0 mi East 4.6 mph - N/A   Partly Cloudy
10:16 AM -5.8 °F -16.7 °F -16.6 °F 60% 30.01 in 10.0 mi ENE 4.6 mph - N/A   Partly Cloudy
10:36 AM -4.0 °F -17.8 °F -7.6 °F 85% 30.01 in 10.0 mi ENE 6.9 mph - N/A   Partly Cloudy
10:56 AM -2.2 °F -10.4 °F -13.0 °F 60% 30.01 in 10.0 mi NE 3.5 mph - N/A   Clear
11:16 AM -2.2 °F -10.4 °F -9.4 °F 71% 30.01 in 10.0 mi NE 3.5 mph - N/A   Clear
11:36 AM -0.4 °F -8.3 °F -11.2 °F 60% 30.01 in 10.0 mi NE 3.5 mph - N/A   Clear
11:56 AM -0.4 °F - -11.2 °F 60% 30.01 in 10.0 mi Calm Calm - N/A   Clear
12:16 PM -0.4 °F - -7.6 °F 72% 30.01 in 10.0 mi Calm Calm - N/A   Clear
12:36 PM 1.4 °F - -13.0 °F 51% 30.00 in 10.0 mi Calm Calm - N/A   Clear
12:56 PM 1.4 °F -6.2 °F -7.6 °F 66% 30.00 in 10.0 mi NE 3.5 mph - N/A   Partly Cloudy
1:16 PM 1.4 °F - -11.2 °F 56% 30.00 in 10.0 mi Calm Calm - N/A   Clear
1:56 PM 3.2 °F - -9.4 °F 56% 30.00 in 10.0 mi Calm Calm - N/A   Clear
2:16 PM 6.8 °F - -9.4 °F 48% 30.00 in 10.0 mi Calm Calm - N/A   Clear
2:36 PM 3.2 °F - -11.2 °F 51% 29.98 in 10.0 mi Calm Calm - N/A   Clear
2:56 PM 5.0 °F - -7.6 °F 56% 29.98 in 10.0 mi Calm Calm - N/A   Clear
3:16 PM 6.8 °F - -7.6 °F 52% 29.98 in 10.0 mi Calm Calm - N/A   Partly Cloudy
3:36 PM 6.8 °F -0.1 °F -9.4 °F 48% 29.98 in 10.0 mi ENE 3.5 mph - N/A   Partly Cloudy
3:56 PM 6.8 °F -2.0 °F -7.6 °F 52% 29.97 in 10.0 mi ENE 4.6 mph - N/A   Partly Cloudy
4:16 PM 5.0 °F -4.1 °F -7.6 °F 56% 29.96 in 10.0 mi NE 4.6 mph - N/A   Partly Cloudy
4:36 PM 6.8 °F -0.1 °F -9.4 °F 48% 29.96 in 10.0 mi ENE 3.5 mph - N/A   Clear
4:56 PM 6.8 °F - -9.4 °F 48% 29.97 in 10.0 mi Calm Calm - N/A   Clear
5:16 PM 6.8 °F - -9.4 °F 48% 29.96 in 10.0 mi Calm Calm - N/A   Clear
5:36 PM 3.2 °F - -9.4 °F 56% 29.96 in 10.0 mi Calm Calm - N/A   Partly Cloudy
5:56 PM 3.2 °F - -7.6 °F 61% 29.97 in 10.0 mi Calm Calm - N/A   Partly Cloudy
6:16 PM 1.4 °F -6.2 °F - N/A% 29.97 in 10.0 mi WSW 3.5 mph - N/A   Scattered Clouds
6:36 PM -0.4 °F - -11.2 °F 60% 29.97 in 10.0 mi Calm Calm - N/A   Scattered Clouds
6:56 PM -0.4 °F - -9.4 °F 66% 29.97 in 10.0 mi Calm Calm - N/A   Mostly Cloudy
7:16 PM -0.4 °F - -11.2 °F 60% 29.97 in 8.0 mi Calm Calm - N/A   Partly Cloudy
7:36 PM -2.2 °F - -20.2 °F 42% 29.97 in 5.0 mi Calm Calm - N/A   Clear
7:56 PM -2.2 °F - -13.0 °F 60% 29.97 in 10.0 mi Calm Calm - N/A   Clear
8:16 PM -2.2 °F - -20.2 °F 42% 29.96 in 10.0 mi Calm Calm - N/A   Clear
8:36 PM -2.2 °F - -2.2 °F 100% 29.97 in 10.0 mi Calm Calm - N/A   Scattered Clouds
8:56 PM -4.0 °F - -16.6 °F 55% 29.97 in 7.0 mi Calm Calm - N/A   Partly Cloudy
9:16 PM -5.8 °F - -5.8 °F 100% 29.96 in 7.0 mi Calm Calm - N/A   Clear
9:56 PM -9.4 °F - -9.4 °F 100% 29.95 in 3.0 mi Calm Calm - N/A   Clear
10:16 PM -11.2 °F - -16.6 °F 77% 29.95 in 2.0 mi Calm Calm - N/A   Clear
10:36 PM -11.2 °F - -14.8 °F 84% 29.95 in 2.5 mi Calm Calm - N/A   Clear
10:56 PM -13.0 °F - -16.6 °F 84% 29.95 in 3.0 mi Calm Calm - N/A   Clear
11:16 PM -14.8 °F - -18.4 °F 84% 29.95 in 3.0 mi Calm Calm - N/A   Clear
11:36 PM -14.8 °F - -16.6 °F 92% 29.95 in 4.0 mi Calm Calm - N/A   Clear
11:56 PM -14.8 °F - -20.2 °F 77% 29.95 in 4.0 mi Calm Calm - N/A   Clear